UAL2611 KSFO-KSBP

Flight info

Callsign UAL2611
Flight time 0h 37m
Altitude 27000
Route WESLA5 YYUNG MQO
Aircraft A320/M-SDE3FGHIRWY/LB1

Departure

Time 2026-04-25 13:35
Airport San Francisco International Airport (KSFO)

Arrival

Time 2026-04-25 14:12
Airport San Luis County Regional Airport (KSBP)
Time Latitude Longitude Altitude Speed Heading
2026-04-25 13:17 37.62110 -122.39070 22 ft 0 kts 117°
2026-04-25 13:22 37.62111 -122.39073 22 ft 2 kts 117°
2026-04-25 13:23 37.62133 -122.39133 22 ft 4 kts 99°
2026-04-25 13:23 37.62132 -122.39164 22 ft 4 kts 58°
2026-04-25 13:23 37.62124 -122.39176 22 ft 0 kts 28°
2026-04-25 13:25 37.62125 -122.39175 22 ft 1 kts 28°
2026-04-25 13:25 37.62145 -122.39162 24 ft 5 kts 26°
2026-04-25 13:25 37.62189 -122.39133 22 ft 9 kts 27°
2026-04-25 13:25 37.62234 -122.39071 22 ft 10 kts 70°
2026-04-25 13:26 37.62257 -122.38983 22 ft 11 kts 72°
2026-04-25 13:26 37.62254 -122.38892 25 ft 11 kts 117°
2026-04-25 13:26 37.62218 -122.38804 23 ft 12 kts 118°
2026-04-25 13:26 37.62179 -122.38712 22 ft 12 kts 118°
2026-04-25 13:27 37.62138 -122.38615 22 ft 13 kts 117°
2026-04-25 13:27 37.62096 -122.38513 22 ft 13 kts 118°
2026-04-25 13:27 37.62051 -122.38407 24 ft 14 kts 117°
2026-04-25 13:27 37.62005 -122.38297 24 ft 15 kts 118°
2026-04-25 13:28 37.61957 -122.38181 22 ft 15 kts 117°
2026-04-25 13:28 37.61923 -122.38101 24 ft 16 kts 118°
2026-04-25 13:28 37.61850 -122.37929 24 ft 18 kts 118°
2026-04-25 13:28 37.61802 -122.37779 22 ft 20 kts 111°
2026-04-25 13:29 37.61748 -122.37609 23 ft 22 kts 111°
2026-04-25 13:29 37.61682 -122.37422 22 ft 23 kts 117°
2026-04-25 13:29 37.61614 -122.37259 22 ft 15 kts 118°
2026-04-25 13:30 37.61520 -122.37036 22 ft 17 kts 118°
2026-04-25 13:30 37.61453 -122.36904 22 ft 19 kts 130°
2026-04-25 13:30 37.61361 -122.36764 22 ft 22 kts 122°
2026-04-25 13:31 37.61240 -122.36478 22 ft 15 kts 118°
2026-04-25 13:31 37.61187 -122.36354 22 ft 17 kts 118°
2026-04-25 13:31 37.61126 -122.36212 23 ft 20 kts 118°
2026-04-25 13:31 37.61077 -122.36096 22 ft 10 kts 118°
2026-04-25 13:32 37.61049 -122.36005 22 ft 12 kts 94°
2026-04-25 13:32 37.61061 -122.35944 22 ft 6 kts 63°
2026-04-25 13:32 37.61086 -122.35913 22 ft 5 kts 34°
2026-04-25 13:32 37.61103 -122.35901 22 ft 0 kts 26°
2026-04-25 13:33 37.61104 -122.35901 22 ft 1 kts 26°
2026-04-25 13:33 37.61122 -122.35890 23 ft 7 kts 26°
2026-04-25 13:34 37.61202 -122.35910 22 ft 12 kts 300°
2026-04-25 13:34 37.61246 -122.36017 23 ft 15 kts 297°
2026-04-25 13:34 37.61355 -122.36281 22 ft 67 kts 298°
2026-04-25 13:34 37.61675 -122.37044 23 ft 126 kts 297°
2026-04-25 13:35 37.62151 -122.38180 205 ft 153 kts 295°
2026-04-25 13:35 37.62631 -122.39355 912 ft 151 kts 297°
2026-04-25 13:35 37.63128 -122.40509 1582 ft 149 kts 297°
2026-04-25 13:35 37.63647 -122.41699 2058 ft 164 kts 296°
2026-04-25 13:36 37.64233 -122.43044 2340 ft 186 kts 297°
2026-04-25 13:36 37.64898 -122.44564 2649 ft 210 kts 297°
2026-04-25 13:36 37.65639 -122.46249 3245 ft 225 kts 298°
2026-04-25 13:36 37.66409 -122.47988 4097 ft 230 kts 297°
2026-04-25 13:37 37.66914 -122.49963 4644 ft 251 kts 269°
2026-04-25 13:37 37.66370 -122.52094 5230 ft 266 kts 232°
2026-04-25 13:37 37.64880 -122.53472 6049 ft 273 kts 197°
2026-04-25 13:37 37.62993 -122.53580 6904 ft 277 kts 168°
2026-04-25 13:38 37.61184 -122.52832 7787 ft 279 kts 157°
2026-04-25 13:38 37.59398 -122.51832 8668 ft 282 kts 156°
2026-04-25 13:38 37.57588 -122.50837 9554 ft 286 kts 158°
2026-04-25 13:38 37.55718 -122.49931 10300 ft 293 kts 161°
2026-04-25 13:39 37.53707 -122.49084 10571 ft 316 kts 163°
2026-04-25 13:39 37.51518 -122.48266 10767 ft 340 kts 164°
2026-04-25 13:39 37.49143 -122.47676 11130 ft 354 kts 176°
2026-04-25 13:39 37.46669 -122.47854 11767 ft 360 kts 189°
2026-04-25 13:40 37.44182 -122.48351 12441 ft 364 kts 189°
2026-04-25 13:40 37.41661 -122.48837 13130 ft 368 kts 188°
2026-04-25 13:40 37.39114 -122.49316 13801 ft 373 kts 188°
2026-04-25 13:40 37.36535 -122.49792 14424 ft 376 kts 188°
2026-04-25 13:41 37.33934 -122.50268 15040 ft 379 kts 188°
2026-04-25 13:41 37.31316 -122.50746 15664 ft 381 kts 188°
2026-04-25 13:41 37.28682 -122.51233 16303 ft 384 kts 189°
2026-04-25 13:41 37.26027 -122.51729 16949 ft 387 kts 189°
2026-04-25 13:42 37.23360 -122.52227 17610 ft 389 kts 189°
2026-04-25 13:42 37.20669 -122.52727 18265 ft 392 kts 189°
2026-04-25 13:42 37.17958 -122.53225 18861 ft 395 kts 189°
2026-04-25 13:42 37.15227 -122.53724 19459 ft 398 kts 189°
2026-04-25 13:43 37.12482 -122.54230 20085 ft 399 kts 189°
2026-04-25 13:43 37.09728 -122.54737 20706 ft 401 kts 190°
2026-04-25 13:43 37.06964 -122.55247 21286 ft 402 kts 190°
2026-04-25 13:43 37.04183 -122.55646 21847 ft 405 kts 184°
2026-04-25 13:44 37.01357 -122.55445 22382 ft 410 kts 174°
2026-04-25 13:44 36.98577 -122.54562 22895 ft 416 kts 163°
2026-04-25 13:44 36.95938 -122.53007 23377 ft 424 kts 154°
2026-04-25 13:44 36.93388 -122.51130 23797 ft 426 kts 154°
2026-04-25 13:45 36.90833 -122.49240 24189 ft 428 kts 154°
2026-04-25 13:45 36.88265 -122.47344 24570 ft 430 kts 154°
2026-04-25 13:45 36.85684 -122.45445 24945 ft 432 kts 154°
2026-04-25 13:45 36.83087 -122.43538 25316 ft 433 kts 154°
2026-04-25 13:46 36.80485 -122.41632 25677 ft 435 kts 154°
2026-04-25 13:46 36.77870 -122.39714 26066 ft 437 kts 154°
2026-04-25 13:46 36.75246 -122.37788 26439 ft 439 kts 154°
2026-04-25 13:46 36.72644 -122.35879 26794 ft 441 kts 154°
2026-04-25 13:47 36.69996 -122.33940 26943 ft 442 kts 154°
2026-04-25 13:47 36.67322 -122.31990 26974 ft 448 kts 154°
2026-04-25 13:47 36.64626 -122.30026 26972 ft 449 kts 154°
2026-04-25 13:47 36.61928 -122.28062 26972 ft 450 kts 155°
2026-04-25 13:48 36.59227 -122.26095 26975 ft 450 kts 155°
2026-04-25 13:48 36.56525 -122.24127 26972 ft 450 kts 155°
2026-04-25 13:48 36.53822 -122.22162 26975 ft 450 kts 155°
2026-04-25 13:48 36.51116 -122.20196 26978 ft 450 kts 155°
2026-04-25 13:49 36.48412 -122.18232 26980 ft 450 kts 155°
2026-04-25 13:49 36.45708 -122.16271 26969 ft 450 kts 154°
2026-04-25 13:49 36.43009 -122.14314 26976 ft 449 kts 155°
2026-04-25 13:49 36.40310 -122.12361 26981 ft 449 kts 155°
2026-04-25 13:50 36.37619 -122.10412 26980 ft 448 kts 154°
2026-04-25 13:50 36.34924 -122.08457 26982 ft 448 kts 154°
2026-04-25 13:50 36.32235 -122.06507 26969 ft 448 kts 154°
2026-04-25 13:50 36.29543 -122.04562 26960 ft 448 kts 154°
2026-04-25 13:51 36.26842 -122.02616 26957 ft 449 kts 154°
2026-04-25 13:51 36.24181 -122.00699 26959 ft 449 kts 154°
2026-04-25 13:51 36.21447 -121.98732 26964 ft 449 kts 154°
2026-04-25 13:51 36.18783 -121.96816 26964 ft 449 kts 154°
2026-04-25 13:52 36.16083 -121.94878 26968 ft 449 kts 154°
2026-04-25 13:52 36.13384 -121.92940 26969 ft 449 kts 154°
2026-04-25 13:52 36.10682 -121.90996 26971 ft 449 kts 154°
2026-04-25 13:52 36.07983 -121.89055 26969 ft 449 kts 154°
2026-04-25 13:53 36.05285 -121.87117 26966 ft 449 kts 154°
2026-04-25 13:53 36.02592 -121.85167 26966 ft 450 kts 152°
2026-04-25 13:53 36.00080 -121.82825 26967 ft 456 kts 142°
2026-04-25 13:53 35.97887 -121.79961 26966 ft 463 kts 133°
2026-04-25 13:54 35.95921 -121.76811 26945 ft 464 kts 132°
2026-04-25 13:54 35.93952 -121.73658 26945 ft 464 kts 132°
2026-04-25 13:54 35.91980 -121.70514 26950 ft 463 kts 132°
2026-04-25 13:54 35.90002 -121.67370 26954 ft 463 kts 132°
2026-04-25 13:55 35.88024 -121.64232 26957 ft 463 kts 132°
2026-04-25 13:55 35.86046 -121.61097 26957 ft 463 kts 132°
2026-04-25 13:55 35.84067 -121.57966 26958 ft 463 kts 132°
2026-04-25 13:55 35.82085 -121.54834 26960 ft 463 kts 132°
2026-04-25 13:56 35.80106 -121.51705 26945 ft 463 kts 132°
2026-04-25 13:56 35.78126 -121.48575 26948 ft 463 kts 132°
2026-04-25 13:56 35.76170 -121.45485 26865 ft 464 kts 132°
2026-04-25 13:56 35.74188 -121.42349 26615 ft 465 kts 132°
2026-04-25 13:57 35.72203 -121.39210 26360 ft 465 kts 132°
2026-04-25 13:57 35.71529 -121.38144 26276 ft 465 kts 132°
2026-04-25 13:57 35.68221 -121.32922 25865 ft 466 kts 132°
2026-04-25 13:57 35.66236 -121.29800 25121 ft 462 kts 132°
2026-04-25 13:58 35.64260 -121.26696 24328 ft 459 kts 132°
2026-04-25 13:58 35.62303 -121.23618 23525 ft 456 kts 132°
2026-04-25 13:58 35.60354 -121.20560 22654 ft 452 kts 132°
2026-04-25 13:58 35.58425 -121.17537 21883 ft 447 kts 132°
2026-04-25 13:59 35.56517 -121.14548 21109 ft 442 kts 132°
2026-04-25 13:59 35.54629 -121.11591 20333 ft 438 kts 132°
2026-04-25 13:59 35.52755 -121.08658 19596 ft 434 kts 132°
2026-04-25 13:59 35.50790 -121.05892 18840 ft 426 kts 140°
2026-04-25 14:00 35.49377 -121.04230 18373 ft 424 kts 141°
2026-04-25 14:00 35.46538 -121.00902 17394 ft 419 kts 141°
2026-04-25 14:00 35.44440 -120.98439 16730 ft 415 kts 140°
2026-04-25 14:00 35.42365 -120.96004 16084 ft 412 kts 140°
2026-04-25 14:01 35.40298 -120.93581 15434 ft 410 kts 140°
2026-04-25 14:01 35.38244 -120.91173 14772 ft 408 kts 140°
2026-04-25 14:01 35.36199 -120.88779 14105 ft 406 kts 139°
2026-04-25 14:01 35.34161 -120.86390 13357 ft 405 kts 139°
2026-04-25 14:02 35.32139 -120.84020 12639 ft 401 kts 139°
2026-04-25 14:02 35.30131 -120.81669 11924 ft 397 kts 139°
2026-04-25 14:02 35.28139 -120.79348 11195 ft 394 kts 139°
2026-04-25 14:02 35.27494 -120.78597 11012 ft 392 kts 139°
2026-04-25 14:03 35.24262 -120.75043 10767 ft 359 kts 146°
2026-04-25 14:03 35.22299 -120.73209 10642 ft 343 kts 146°
2026-04-25 14:03 35.20472 -120.71494 10522 ft 329 kts 146°
2026-04-25 14:03 35.18694 -120.69824 10395 ft 316 kts 146°
2026-04-25 14:04 35.16977 -120.68215 10271 ft 306 kts 146°
2026-04-25 14:04 35.15306 -120.66654 10059 ft 299 kts 146°
2026-04-25 14:04 35.13668 -120.65125 9996 ft 296 kts 146°
2026-04-25 14:04 35.12016 -120.63587 9607 ft 301 kts 146°
2026-04-25 14:05 35.10359 -120.62048 9270 ft 298 kts 146°
2026-04-25 14:05 35.08702 -120.60509 8777 ft 301 kts 145°
2026-04-25 14:05 35.07028 -120.58953 8297 ft 303 kts 145°
2026-04-25 14:05 35.05352 -120.57393 7871 ft 304 kts 145°
2026-04-25 14:06 35.03883 -120.55540 7443 ft 308 kts 121°
2026-04-25 14:06 35.03322 -120.53026 7002 ft 312 kts 89°
2026-04-25 14:06 35.03873 -120.50491 6515 ft 313 kts 58°
2026-04-25 14:06 35.05314 -120.48534 6019 ft 308 kts 37°
2026-04-25 14:07 35.07027 -120.47061 5548 ft 295 kts 29°
2026-04-25 14:07 35.08766 -120.45819 5088 ft 284 kts 27°
2026-04-25 14:07 35.10521 -120.44843 4633 ft 271 kts
2026-04-25 14:07 35.12298 -120.45058 4237 ft 251 kts 332°
2026-04-25 14:08 35.13593 -120.46336 3897 ft 234 kts 305°
2026-04-25 14:08 35.14508 -120.47923 3562 ft 223 kts 303°
2026-04-25 14:08 35.15374 -120.49440 3253 ft 213 kts 304°
2026-04-25 14:08 35.16193 -120.50875 2950 ft 205 kts 304°
2026-04-25 14:09 35.16981 -120.52260 2676 ft 192 kts 304°
2026-04-25 14:09 35.17729 -120.53573 2421 ft 186 kts 304°
2026-04-25 14:09 35.18459 -120.54852 2180 ft 179 kts 305°
2026-04-25 14:09 35.18698 -120.55270 2084 ft 176 kts 305°
2026-04-25 14:10 35.19775 -120.57157 1644 ft 148 kts 306°
2026-04-25 14:10 35.20335 -120.58140 1395 ft 136 kts 305°
2026-04-25 14:10 35.20867 -120.59076 1206 ft 133 kts 305°
2026-04-25 14:10 35.21393 -120.59999 1012 ft 131 kts 306°
2026-04-25 14:11 35.21927 -120.60932 787 ft 137 kts 304°
2026-04-25 14:11 35.22476 -120.61899 627 ft 139 kts 305°
2026-04-25 14:11 35.23035 -120.62870 372 ft 140 kts 304°
2026-04-25 14:11 35.23397 -120.63520 212 ft 139 kts 304°
2026-04-25 14:12 35.23999 -120.64575 188 ft 83 kts 304°
2026-04-25 14:12 35.24207 -120.64931 193 ft 12 kts 326°
2026-04-25 14:12 35.24255 -120.64915 192 ft 12 kts 31°
2026-04-25 14:12 35.24229 -120.64781 200 ft 14 kts 125°
2026-04-25 14:13 35.24190 -120.64711 196 ft 16 kts 124°
2026-04-25 14:13 35.24124 -120.64599 188 ft 16 kts 126°
2026-04-25 14:13 35.24070 -120.64504 193 ft 11 kts 124°
2026-04-25 14:13 35.24020 -120.64415 197 ft 14 kts 124°
2026-04-25 14:14 35.23957 -120.64302 194 ft 13 kts 124°
2026-04-25 14:14 35.23901 -120.64224 195 ft 11 kts 132°
2026-04-25 14:14 35.23868 -120.64167 193 ft 13 kts 124°
2026-04-25 14:14 35.23821 -120.64082 191 ft 11 kts 124°
2026-04-25 14:15 35.23780 -120.63997 188 ft 10 kts 120°
2026-04-25 14:15 35.23758 -120.63953 195 ft 10 kts 122°
2026-04-25 14:15 35.23765 -120.63896 194 ft 1 kts 38°
2026-04-25 14:15 35.23773 -120.63882 194 ft 3 kts 62°
2026-04-25 14:16 35.23777 -120.63861 197 ft 3 kts 86°
2026-04-25 14:16 35.23777 -120.63847 191 ft 0 kts 90°